Regional Weather Roundup
Issued by NWS Cleveland, OH

Home | Current Version | Previous Version | Text Only | Print | Product List | Glossary Off
Versions: 1 2 3 4 5 6 7 8 9 10 11 12 13 14 15 16 17 18 19 20 21 22 23 24 25 26 27 28 29 30 31 32 33 34 35 36 37 38 39 40 41 42 43 44 45 46 47 48 49 50

000
ASUS41 KCLE 171800
RWRCLE
OHIO REGIONAL WEATHER ROUNDUP
NATIONAL WEATHER SERVICE WILMINGTON, OH
200 PM EDT THU AUG 17 2017

NOTE: "FAIR" INDICATES FEW OR NO CLOUDS BELOW 12,000 FEET WITH NO
SIGNIFICANT WEATHER AND/OR OBSTRUCTIONS TO VISIBILITY.

OHZ001>008-015>018-024>027-034-035-043-044-171900-
   NORTHWEST OHIO

CITY           SKY/WX    TMP DP  RH WIND       PRES   REMARKS
DEFIANCE       CLOUDY    76  71  85 S10       29.81F
FINDLAY        FAIR      83  71  67 S12       29.82F
TOLEDO EXPRESS TSTM      75  75 100 SW13      29.83R VSB 1/2
TOLEDO EXEC    TSTM      82  75  79 SW10      29.81F
LIMA           LGT RAIN  79  74  84 S9        29.84F
$$

OHZ009>014-019>023-028>033-038-089-171900-
   NORTHEAST OHIO

CITY           SKY/WX    TMP DP  RH WIND       PRES   REMARKS
CLE-HOPKINS    CLOUDY    88  71  57 SW15      29.88F HX  94
CLE-LAKEFRONT  CLOUDY    89  68  49 S14G21    29.85F HX  93
CUY CO. ARPT   NOT AVBL
LORAIN-ELYRIA  FAIR      84  68  58 S15       29.87F
ASHTABULA      FAIR      84  73  69 S9        29.90F HX  90
AKRON-CANTON   PTSUNNY   88  69  53 S16G24    29.91F HX  92
WOOSTER        NOT AVBL
MANSFIELD      FAIR      84  73  69 S15G22    29.90F HX  90
YOUNGSTOWN     CLOUDY    86  71  60 S8        29.92F HX  91
$$

OHZ042-051>053-060>062-070>072-077>081-171900-
  SOUTHWEST OHIO

CITY           SKY/WX    TMP DP  RH WIND       PRES   REMARKS
CINC-COVINGTON PTSUNNY   86  73  65 SW15G28   29.88F HX  93
CINC-LUNKEN    FAIR      90  75  61 S18G25    29.87F HX 100
HAMILTON       PTSUNNY   87  72  60 SW9G17    29.87F HX  93
DAYTON         NOT AVBL
WRIGHT-PAT AFB NOT AVBL
DAYTON GENERAL FAIR      86  68  54 SW17G26   29.88F
WILMINGTON     PTSUNNY   89  75  63 SW14G24   29.90F HX  99
$$

OHZ036-037-039>041-045>050-054>059-063>069-073>076-082>088-171900-
  CENTRAL AND SOUTHEAST OHIO

CITY           SKY/WX    TMP DP  RH WIND       PRES   REMARKS
COLUMBUS       FAIR      87  75  67 S14G23    29.88F HX  96
OSU AIRPORT    FAIR      87  75  67 S17G25    29.88F HX  96
BOLTON FIELD   PTSUNNY   84  73  70 SW10      29.90F HX  91
RICKENBACK AFB NOT AVBL
NEWARK         FAIR      86  73  65 SW14G20   29.89F HX  93
MARION         FAIR      87  72  60 SW16      29.88F HX  93
LANCASTER      FAIR      88  74  63 SW12      29.90F HX  96
ZANESVILLE     LGT RAIN  85  75  72 SW16G22   29.92F HX  93
NEW PHILLY     PTSUNNY   82  76  81 CALM      29.91F
$$




USA.gov is the U.S. government's official web portal to all federal, state and local government web resources and services.